Temp
4 4 4 4 4 4 4 4 4 4 4 4 4 4 4 4 4 5 5 5 5 5 6 6 6 6 7 7 7 7 7 7 7 7 7 7 8 8 8 8 8 9 9 9 9 9 9 9 9 9 9 9 9 10 10 10 10 10 11 11 11 11 11 11 11 11 11 11 11
4 4 4 4 4 4 4 4 4 4 4 4 4 4 4 4 4 4 5 5 5 5 5 6 6 6 7 7 7 7 7 7 7 7 7 7 7 8 8 8 8 8 9 9 9 9 9 9 9 9 9 9 9 9 9 10 10 10 10 10 10 10 10 11 11 11 11 11 11
4 4 4 4 4 4 4 4 4 4 4 3 3 3 3 4 4 4 4 5 5 5 5 5 6 6 6 6 6 6 7 7 7 7 7 7 7 7 7 8 8 8 8 9 9 8 9 9 9 9 9 9 9 9 9 9 10 10 10 10 10 10 10 10 10 11 11 11 11
4 4 4 4 4 4 4 4 4 4 3 3 3 3 3 3 4 4 4 4 5 5 5 5 6 6 6 6 6 6 6 6 7 7 7 7 7 7 7 7 8 8 8 9 8 8 8 8 9 9 9 9 9 9 9 9 9 10 10 10 10 10 10 10 10 10 10 10 11
4 4 4 4 4 4 4 4 4 4 3 3 3 3 3 3 3 3 4 4 4 4 4 5 5 5 5 5 6 6 6 6 6 7 7 7 7 7 7 7 7 8 8 8 8 8 8 8 8 9 9 9 9 9 9 9 9 9 9 9 10 10 10 10 10 10 10 10 10
4 4 4 4 4 4 4 4 3 3 3 3 3 3 3 3 3 3 3 3 3 4 4 4 4 4 5 5 5 5 5 6 6 6 6 6 6 6 6 7 7 7 8 8 8 8 8 8 8 8 8 8 9 9 9 9 9 9 9 9 9 9 9 10 10 10 10 10 11
3 3 3 3 4 4 4 3 3 3 3 3 3 3 3 3 3 3 3 3 3 3 3 3 4 4 4 4 5 5 5 5 6 6 6 6 6 6 6 6 6 7 7 8 8 8 8 8 8 8 8 8 9 9 9 9 9 9 9 9 9 9 9 9 9 10 10 10 10
3 3 3 3 3 3 3 3 3 3 3 3 3 3 2 2 2 2 2 2 2 3 3 3 3 4 4 4 4 5 5 5 6 6 6 6 5 5 5 6 6 7 7 7 8 8 8 8 8 8 8 8 8 9 9 9 9 8 8 8 9 9 9 9 9 9 9 10 10
3 3 3 3 3 3 3 3 3 3 3 3 3 2 2 2 2 2 2 2 2 2 2 2 3 3 4 4 4 4 5 5 6 6 6 6 5 5 5 5 6 6 7 7 8 8 8 8 8 8 8 8 8 9 9 9 9 8 8 8 8 8 9 9 9 9 9 9 9
3 3 3 3 3 3 3 3 3 3 3 2 2 2 2 2 2 2 2 2 2 2 2 2 2 3 3 4 4 4 4 5 5 6 6 6 5 5 5 5 5 6 6 7 7 8 8 8 8 8 8 8 9 9 8 8 9 8 8 8 8 8 8 8 9 9 9 9 9
3 3 3 3 3 3 3 2 2 2 2 2 2 2 2 1 1 1 1 1 1 1 1 1 1 2 2 3 3 3 4 4 5 5 6 6 5 5 5 5 5 6 6 6 7 7 7 8 8 8 8 9 9 8 8 8 8 8 8 8 8 8 8 8 8 8 8 8 9
3 3 2 2 2 2 2 2 2 2 2 2 1 1 1 1 1 1 1 1 1 1 0 0 0 1 1 1 2 2 3 3 4 4 5 5 5 5 5 5 5 5 6 6 6 7 7 7 8 8 8 9 8 8 8 8 8 8 8 7 8 8 8 8 9 9 8 8 8
3 2 2 2 2 2 2 2 2 2 1 1 1 1 1 1 1 1 1 1 0 0 -0 -1 -1 -0 0 0 1 1 1 2 2 3 4 5 5 5 5 5 5 5 6 6 6 7 7 7 8 8 8 8 8 8 7 7 7 7 7 7 8 8 8 8 9 9 9 8 8
2 2 2 2 2 2 2 2 2 1 1 1 1 1 1 1 1 1 1 0 0 -0 -1 -1 -1 -1 -1 -0 -0 0 0 1 1 2 3 4 4 5 4 5 5 5 6 6 6 7 7 7 7 8 8 8 8 7 7 7 7 7 7 7 7 8 8 8 8 9 9 8 8
2 2 2 2 2 2 2 2 2 1 1 1 1 1 1 1 1 1 0 -0 -0 -1 -1 -1 -2 -1 -1 -1 -1 -1 -1 -0 0 1 2 3 4 4 4 5 5 5 6 6 6 7 7 7 7 8 8 8 7 7 7 7 7 7 7 7 7 7 8 8 8 8 8 8 8
2 2 2 2 2 2 2 2 2 1 1 1 1 1 1 1 1 0 -0 -0 -1 -1 -2 -2 -2 -2 -2 -2 -2 -1 -1 -1 -0 0 1 2 3 4 4 5 5 5 5 6 6 6 7 7 7 7 7 7 7 7 7 7 7 7 7 7 7 7 7 8 8 8 8 8 8
2 2 2 2 2 2 2 2 1 1 1 1 1 1 1 1 0 0 -0 -1 -1 -1 -1 -2 -2 -2 -2 -2 -2 -2 -1 -1 -1 -0 1 2 3 3 4 4 5 5 5 6 6 6 7 7 7 7 7 7 7 7 7 7 7 7 7 7 7 7 7 7 7 7 8 8 8
2 2 2 2 2 2 2 2 1 1 1 1 1 1 1 1 0 -0 -0 -1 -1 -1 -1 -2 -2 -2 -2 -2 -2 -2 -1 -1 -1 -1 0 1 2 3 4 4 5 5 5 6 6 6 6 7 7 7 7 7 7 7 7 7 7 7 7 7 7 7 7 7 7 7 7 7 7
2 2 2 2 2 2 2 1 1 1 1 1 1 1 1 0 0 -0 -0 -1 -1 -1 -1 -1 -1 -2 -2 -2 -2 -2 -2 -1 -1 -1 -0 1 2 3 4 4 5 5 5 6 6 6 6 6 6 7 7 7 7 7 7 7 7 7 7 7 7 7 7 7 7 7 7 7 7
2 2 2 2 2 1 1 1 1 1 1 1 1 1 1 0 0 -0 -0 -0 -0 -1 -1 -1 -1 -1 -2 -2 -2 -2 -2 -1 -1 -1 -0 0 1 2 3 4 5 5 5 5 5 5 6 6 6 6 6 6 6 7 7 7 7 6 6 6 7 7 7 7 7 7 7 7 7
2 2 1 1 1 1 1 1 1 1 1 1 1 1 1 1 0 0 0 0 -0 -0 -0 -1 -1 -1 -1 -2 -2 -2 -2 -2 -1 -1 -0 0 1 2 3 4 5 5 5 5 5 5 5 5 6 6 6 6 6 6 7 7 6 6 6 6 7 7 7 7 7 7 7 7 7
2 1 1 1 1 1 1 1 1 1 1 1 1 1 1 1 0 0 0 0 0 0 -0 -0 -1 -1 -1 -1 -2 -2 -2 -2 -1 -1 -0 1 1 2 3 4 5 5 5 5 5 5 5 5 5 5 5 5 6 6 6 6 6 6 6 6 6 6 7 7 7 7 7 7 7
1 1 1 1 1 1 1 1 1 1 1 1 1 1 1 1 1 1 0 0 0 0 -0 -0 -1 -1 -1 -1 -2 -2 -2 -2 -1 -1 0 1 2 3 3 4 5 5 5 5 5 5 5 5 5 5 5 5 6 6 6 6 6 6 6 6 6 6 6 6 6 7 7 7 6
1 1 1 1 1 1 1 1 1 1 1 1 1 1 1 1 1 1 0 0 0 -0 -0 -1 -1 -1 -1 -1 -1 -2 -2 -2 -1 -1 0 1 2 3 3 4 5 5 5 5 5 5 5 5 5 5 5 5 5 6 6 6 6 6 6 6 6 6 6 6 6 6 6 6 6
1 1 1 1 1 1 1 1 0 1 1 1 1 1 1 1 1 1 1 0 0 -0 -0 -1 -1 -1 -1 -1 -1 -2 -2 -2 -1 -0 1 2 2 3 3 4 4 5 5 5 5 5 5 5 5 5 5 5 5 6 6 6 6 6 6 6 6 6 6 6 6 6 6 6 6
1 1 1 1 1 1 0 0 0 0 0 1 1 1 1 1 1 1 1 0 0 0 -0 -0 -1 -1 -1 -1 -1 -1 -2 -1 -1 -0 1 2 2 2 3 4 4 5 5 5 5 5 5 5 5 5 5 5 5 5 5 6 6 6 6 6 6 6 6 6 6 6 6 6 6
1 1 1 1 0 0 0 0 0 0 0 0 1 1 1 1 1 1 1 1 0 0 0 -0 -0 -0 -1 -1 -1 -1 -1 -1 -1 -0 1 1 2 2 3 3 4 5 5 5 5 5 5 5 5 5 5 5 5 5 5 5 5 6 6 6 6 6 6 6 6 6 6 6 6
1 1 0 0 0 0 0 -0 -0 -0 0 0 0 1 1 1 0 0 1 1 0 0 0 -0 -0 -0 -0 -1 -1 -1 -1 -1 -1 -0 0 1 1 2 2 3 4 4 4 4 4 4 4 5 4 4 4 4 5 5 5 5 5 5 5 6 6 6 6 6 6 5 6 6 6
1 1 0 0 0 0 -0 -0 -0 -0 -0 0 0 0 0 0 0 0 0 0 0 0 0 -0 -0 -0 -0 -1 -1 -0 -0 -0 -0 -0 0 1 1 2 2 3 3 4 4 4 4 4 4 4 4 4 4 4 4 4 5 5 5 5 5 6 6 6 6 5 5 5 5 5 6
1 0 0 0 0 -0 -0 -0 -0 -0 -0 -0 0 0 0 0 0 0 0 0 0 0 -0 -0 0 -0 -0 -1 -0 -0 -0 -0 -0 0 0 0 1 2 2 3 3 3 3 4 4 4 4 4 4 4 4 4 4 4 5 5 5 5 5 5 5 5 5 5 5 5 5 5 5
1 0 0 0 0 -0 -0 -1 -1 -1 -0 -0 0 0 0 0 0 0 0 0 0 -0 -0 -0 -0 -0 -0 -0 -0 -0 -0 0 0 0 0 0 1 2 2 2 3 3 3 3 4 4 4 4 4 4 4 4 4 4 4 4 5 5 5 5 5 5 5 5 5 5 5 5 5
1 0 0 0 0 -0 -0 -1 -1 -1 -0 -0 -0 -0 -0 -0 0 0 0 0 0 -0 -0 -0 0 0 -0 -0 -0 -0 -0 -0 0 0 0 1 1 2 2 2 2 2 3 3 4 4 4 4 4 4 4 4 4 4 4 4 4 4 5 5 5 5 5 5 5 5 5 5 5
1 0 0 0 0 0 -0 -1 -1 -1 -1 -0 -0 -0 -0 -0 0 0 0 0 0 -0 -0 -0 0 0 0 -0 -0 -0 -0 -0 0 1 1 1 2 2 2 1 2 2 3 3 3 3 4 4 4 4 4 4 4 4 4 4 4 4 4 4 4 4 4 4 4 4 4 4 4
1 1 1 1 0 0 -0 -1 -1 -1 -1 -0 -0 -0 -0 -0 0 0 0 0 -0 -0 -0 -0 0 0 0 -0 -0 -0 -0 0 0 1 1 2 2 2 1 1 1 2 2 3 3 3 3 3 3 3 3 3 3 4 4 4 4 4 4 4 4 4 4 4 4 4 4 4 4
1 1 1 1 0 -0 -0 -1 -1 -1 -1 -0 -0 -0 -0 -0 0 0 0 0 -0 -0 -0 -0 -0 0 -0 -0 -0 -0 -0 0 1 1 1 1 1 1 1 1 1 2 2 3 3 3 3 3 3 3 3 3 3 3 3 4 4 4 4 4 4 4 4 4 4 4 4 4 4
1 1 1 1 0 -0 -1 -1 -1 -1 -1 -1 -1 -1 -0 -0 -0 -0 -0 -0 -0 -0 -0 -0 -0 -0 -0 -0 -0 -0 -0 -0 1 1 1 1 1 1 1 1 1 2 3 3 3 3 3 3 3 3 3 3 3 3 3 3 3 3 3 3 3 4 4 4 4 4 4 3 3
1 1 1 1 0 -0 -1 -1 -1 -1 -1 -1 -1 -1 -1 -1 -1 -0 -0 -0 -0 -1 -1 -0 -0 -0 -0 -0 -1 -1 -1 -0 -0 0 0 0 0 0 0 1 1 2 2 2 2 2 3 3 2 3 3 3 3 3 3 3 3 3 3 3 3 3 3 3 3 3 3 3 3
1 1 1 1 0 -0 -1 -1 -1 -1 -1 -1 -1 -1 -1 -1 -1 -1 -1 -1 -1 -1 -1 -1 -1 -0 -0 -1 -1 -1 -1 -1 -0 -0 0 0 0 0 0 0 1 1 1 2 2 2 2 3 2 3 3 3 3 3 3 3 3 2 2 2 3 3 3 3 3 3 3 3 3
1 1 1 1 0 -0 -1 -1 -1 -2 -2 -1 -1 -1 -1 -1 -1 -1 -1 -1 -1 -1 -1 -1 -1 -1 -1 -1 -1 -1 -1 -1 -1 -0 -0 0 -0 -0 -0 -0 -0 0 0 1 1 2 2 2 2 2 3 3 3 3 3 3 2 2 2 2 2 2 2 3 3 3 3 3 3
1 1 1 0 0 -0 -1 -1 -1 -2 -2 -2 -2 -1 -1 -1 -1 -1 -1 -1 -1 -1 -1 -1 -1 -1 -1 -1 -1 -2 -2 -1 -1 -1 -1 -1 -1 -1 -1 -1 -1 -0 -0 0 1 2 2 2 2 2 2 2 2 2 2 2 2 2 1 1 1 2 2 2 2 2 2 2 2
0 0 0 0 0 -0 -0 -1 -1 -2 -2 -2 -2 -2 -2 -1 -1 -1 -1 -1 -1 -1 -1 -1 -1 -1 -1 -1 -1 -2 -2 -2 -2 -1 -1 -1 -1 -1 -1 -1 -1 -1 -0 0 1 2 2 2 2 2 2 2 2 2 2 2 2 2 1 1 1 1 1 1 2 2 2 2 2
Height
1437 1436 1435 1434 1432 1431 1431 1430 1429 1429 1428 1428 1428 1428 1427 1427 1427 1427 1426 1426 1426 1426 1425 1425 1425 1424 1424 1425 1425 1426 1425 1425 1425 1425 1425 1424 1424 1424 1424 1423 1423 1423 1423 1423 1423 1423 1422 1421 1421 1420 1420 1420 1420 1420 1420 1420 1420 1420 1420 1421 1421 1422 1422 1422 1422 1423 1424 1424 1425
1436 1435 1434 1433 1431 1430 1429 1429 1428 1428 1428 1427 1427 1427 1426 1426 1426 1426 1426 1425 1425 1424 1424 1424 1423 1423 1423 1424 1424 1425 1424 1424 1424 1424 1423 1423 1423 1423 1423 1423 1422 1422 1422 1422 1422 1422 1421 1421 1421 1420 1420 1420 1420 1420 1420 1420 1420 1420 1420 1421 1421 1421 1421 1421 1421 1422 1422 1423 1424
1435 1434 1433 1432 1431 1429 1429 1428 1427 1427 1427 1426 1426 1426 1426 1425 1425 1425 1424 1424 1423 1423 1422 1422 1422 1422 1422 1423 1423 1423 1423 1423 1423 1422 1422 1422 1422 1422 1422 1422 1421 1421 1421 1422 1422 1422 1421 1421 1421 1420 1420 1420 1420 1420 1420 1420 1420 1420 1421 1421 1421 1421 1421 1421 1421 1421 1421 1421 1422
1434 1433 1432 1431 1430 1428 1428 1427 1426 1426 1426 1426 1425 1425 1425 1424 1424 1423 1423 1422 1422 1421 1421 1421 1420 1421 1421 1421 1421 1421 1421 1421 1421 1421 1421 1421 1421 1421 1421 1421 1421 1421 1421 1421 1421 1421 1421 1421 1421 1420 1420 1420 1420 1420 1420 1420 1420 1421 1421 1421 1421 1421 1420 1420 1420 1420 1420 1420 1420
1433 1432 1431 1430 1429 1427 1427 1426 1426 1425 1425 1425 1424 1424 1423 1423 1422 1422 1421 1421 1421 1420 1420 1419 1419 1419 1419 1419 1419 1419 1419 1419 1419 1419 1419 1420 1420 1420 1420 1420 1420 1420 1420 1420 1421 1421 1421 1421 1420 1420 1420 1420 1420 1420 1420 1420 1420 1421 1421 1421 1421 1420 1420 1419 1419 1418 1419 1419 1419
1432 1431 1430 1429 1427 1426 1426 1425 1425 1424 1424 1424 1423 1423 1422 1421 1421 1420 1420 1419 1419 1418 1418 1417 1417 1417 1416 1416 1416 1416 1416 1416 1417 1417 1417 1418 1418 1418 1419 1419 1419 1419 1419 1419 1420 1420 1420 1420 1420 1420 1420 1420 1420 1420 1420 1420 1420 1420 1420 1420 1420 1419 1419 1418 1417 1417 1417 1417 1417
1431 1430 1428 1427 1426 1426 1425 1424 1424 1423 1423 1422 1422 1421 1421 1420 1420 1419 1418 1418 1417 1417 1416 1416 1415 1415 1414 1414 1414 1414 1414 1414 1414 1415 1415 1416 1416 1417 1417 1418 1418 1418 1418 1418 1419 1419 1420 1420 1420 1419 1419 1419 1420 1420 1420 1420 1419 1419 1419 1419 1419 1419 1418 1417 1416 1416 1416 1416 1416
1429 1428 1427 1426 1425 1425 1424 1423 1423 1422 1422 1421 1421 1420 1420 1419 1418 1418 1417 1416 1416 1415 1414 1414 1413 1412 1412 1411 1411 1411 1411 1411 1412 1412 1413 1414 1414 1415 1416 1416 1416 1416 1417 1417 1417 1418 1419 1419 1419 1419 1419 1419 1419 1419 1419 1419 1419 1418 1418 1418 1418 1418 1417 1416 1415 1415 1415 1415 1416
1428 1427 1426 1425 1424 1423 1423 1422 1422 1421 1421 1420 1420 1419 1418 1418 1417 1416 1416 1415 1414 1413 1413 1412 1411 1411 1410 1409 1409 1409 1409 1409 1410 1410 1411 1412 1412 1413 1414 1414 1415 1415 1416 1416 1416 1417 1418 1418 1418 1418 1418 1418 1418 1419 1419 1418 1418 1418 1418 1418 1418 1417 1417 1416 1415 1415 1414 1415 1416
1427 1426 1425 1424 1423 1422 1422 1421 1421 1420 1420 1419 1418 1418 1417 1416 1416 1415 1414 1413 1412 1412 1411 1410 1410 1409 1408 1407 1407 1407 1407 1407 1407 1408 1409 1410 1411 1411 1412 1412 1413 1414 1414 1415 1415 1416 1416 1417 1417 1417 1417 1417 1418 1418 1418 1417 1417 1417 1417 1417 1417 1417 1417 1416 1415 1415 1414 1415 1415
1426 1425 1424 1423 1422 1421 1421 1420 1420 1419 1418 1418 1417 1417 1416 1416 1415 1414 1413 1412 1411 1410 1409 1409 1408 1407 1406 1406 1405 1405 1405 1405 1406 1406 1407 1408 1409 1409 1410 1411 1411 1412 1413 1414 1414 1415 1415 1416 1416 1416 1416 1417 1417 1417 1416 1417 1417 1417 1417 1418 1418 1417 1416 1416 1415 1414 1415 1415 1416
1425 1423 1422 1421 1421 1420 1419 1419 1418 1418 1417 1417 1416 1416 1416 1415 1414 1413 1412 1411 1410 1409 1408 1407 1406 1406 1405 1404 1404 1404 1404 1404 1404 1405 1406 1406 1407 1408 1409 1410 1410 1411 1411 1412 1413 1413 1414 1415 1415 1415 1416 1416 1416 1416 1416 1416 1416 1416 1417 1417 1417 1417 1416 1415 1414 1414 1415 1415 1416
1423 1422 1421 1420 1419 1419 1418 1418 1417 1417 1416 1416 1416 1415 1415 1414 1413 1412 1411 1410 1409 1408 1406 1406 1405 1404 1403 1403 1402 1402 1403 1403 1403 1403 1404 1405 1406 1407 1408 1408 1409 1410 1411 1411 1411 1412 1413 1413 1414 1414 1415 1415 1415 1415 1415 1415 1415 1416 1416 1417 1417 1416 1415 1414 1414 1414 1415 1416 1416
1422 1421 1420 1419 1418 1417 1417 1416 1416 1416 1416 1415 1415 1415 1414 1413 1412 1411 1410 1408 1407 1406 1405 1404 1403 1403 1402 1401 1401 1401 1401 1402 1402 1402 1403 1404 1405 1406 1406 1407 1408 1409 1409 1410 1410 1411 1411 1412 1412 1413 1414 1414 1414 1414 1414 1414 1414 1415 1415 1416 1416 1416 1415 1414 1414 1414 1415 1416 1417
1421 1420 1419 1418 1417 1416 1416 1415 1415 1415 1415 1415 1414 1414 1413 1412 1411 1409 1408 1407 1406 1405 1404 1403 1402 1401 1401 1400 1400 1400 1401 1401 1401 1401 1402 1402 1403 1405 1406 1406 1407 1407 1408 1408 1409 1409 1410 1411 1411 1412 1412 1413 1413 1413 1413 1413 1413 1413 1414 1415 1415 1415 1415 1414 1414 1414 1415 1416 1417
1419 1418 1417 1416 1416 1415 1415 1414 1414 1414 1414 1413 1413 1412 1411 1410 1409 1408 1406 1405 1404 1403 1402 1402 1401 1401 1400 1400 1400 1400 1400 1400 1400 1401 1401 1401 1402 1403 1404 1405 1406 1406 1407 1407 1407 1408 1408 1409 1410 1411 1411 1412 1412 1412 1412 1412 1412 1412 1413 1414 1414 1414 1414 1414 1414 1414 1415 1416 1417
1418 1417 1416 1415 1414 1414 1413 1413 1413 1412 1412 1411 1411 1410 1409 1408 1407 1406 1405 1404 1403 1402 1401 1401 1400 1400 1399 1399 1399 1399 1399 1399 1399 1400 1400 1401 1401 1402 1403 1404 1404 1405 1406 1406 1406 1406 1407 1408 1408 1409 1410 1411 1411 1411 1411 1411 1411 1411 1412 1413 1413 1414 1414 1414 1414 1414 1415 1416 1417
1416 1416 1415 1414 1413 1413 1412 1412 1411 1411 1411 1410 1409 1408 1407 1407 1406 1405 1404 1403 1402 1401 1401 1400 1399 1399 1398 1398 1398 1398 1397 1398 1398 1398 1399 1400 1400 1401 1401 1402 1403 1404 1404 1405 1405 1405 1406 1406 1407 1408 1409 1409 1410 1410 1410 1411 1411 1411 1411 1412 1413 1413 1414 1414 1414 1414 1415 1415 1416
1415 1414 1413 1412 1412 1411 1411 1411 1410 1410 1409 1408 1408 1407 1406 1406 1405 1404 1403 1402 1401 1401 1400 1399 1398 1398 1397 1397 1396 1396 1396 1396 1397 1397 1398 1398 1399 1400 1401 1401 1402 1403 1403 1403 1404 1404 1405 1405 1406 1407 1408 1408 1409 1409 1410 1410 1410 1411 1411 1411 1412 1413 1413 1413 1414 1414 1414 1415 1415
1413 1413 1412 1411 1411 1410 1410 1409 1409 1408 1408 1407 1406 1406 1405 1404 1404 1403 1402 1401 1401 1400 1399 1398 1397 1397 1396 1396 1395 1395 1395 1396 1396 1396 1396 1397 1398 1399 1400 1401 1401 1401 1402 1402 1402 1403 1403 1404 1405 1406 1406 1407 1407 1408 1409 1409 1410 1410 1410 1411 1411 1412 1412 1413 1413 1413 1413 1414 1414
1412 1411 1411 1410 1409 1409 1408 1408 1407 1407 1406 1406 1405 1405 1404 1403 1403 1402 1401 1401 1400 1399 1398 1397 1396 1396 1395 1395 1394 1394 1394 1394 1395 1395 1396 1396 1397 1398 1399 1400 1400 1401 1401 1401 1401 1401 1402 1403 1404 1404 1405 1406 1406 1407 1408 1408 1409 1409 1409 1410 1411 1411 1412 1412 1413 1413 1413 1413 1414
1411 1410 1409 1409 1408 1407 1407 1407 1406 1406 1405 1405 1404 1404 1403 1403 1402 1401 1400 1399 1399 1398 1397 1396 1396 1395 1394 1394 1393 1393 1393 1393 1394 1394 1395 1396 1396 1397 1398 1398 1399 1399 1400 1400 1400 1401 1401 1402 1403 1403 1404 1404 1405 1406 1406 1407 1408 1408 1409 1409 1410 1411 1411 1411 1412 1412 1413 1413 1413
1410 1409 1408 1407 1407 1406 1406 1406 1405 1405 1404 1404 1403 1403 1402 1401 1401 1400 1399 1398 1397 1397 1396 1395 1395 1394 1394 1393 1393 1392 1392 1392 1393 1393 1394 1395 1396 1396 1397 1397 1398 1398 1398 1399 1400 1400 1401 1401 1402 1402 1403 1403 1404 1404 1405 1406 1407 1407 1408 1409 1409 1410 1411 1411 1411 1412 1412 1413 1413
1409 1408 1407 1406 1406 1405 1405 1405 1404 1404 1403 1403 1402 1402 1401 1401 1400 1399 1399 1398 1397 1396 1395 1395 1394 1393 1393 1392 1392 1391 1391 1391 1391 1392 1393 1394 1395 1396 1396 1396 1397 1397 1398 1398 1399 1400 1400 1401 1401 1401 1402 1402 1403 1403 1404 1405 1406 1406 1407 1408 1409 1409 1410 1411 1411 1412 1412 1413 1414
1407 1407 1406 1405 1405 1404 1404 1403 1403 1403 1402 1402 1401 1401 1401 1400 1399 1399 1398 1397 1396 1395 1395 1394 1393 1393 1392 1391 1391 1391 1390 1390 1391 1391 1392 1393 1394 1395 1395 1395 1396 1396 1397 1397 1398 1399 1400 1400 1401 1401 1401 1401 1402 1403 1403 1404 1405 1406 1406 1407 1408 1409 1409 1410 1411 1411 1412 1413 1414
1406 1406 1405 1404 1404 1403 1403 1402 1402 1402 1401 1401 1401 1400 1400 1399 1398 1398 1397 1396 1396 1395 1394 1393 1392 1392 1391 1391 1390 1390 1389 1389 1390 1390 1391 1392 1393 1394 1394 1394 1395 1396 1396 1397 1398 1398 1399 1400 1400 1400 1401 1401 1401 1402 1403 1403 1404 1405 1406 1406 1407 1408 1409 1410 1410 1411 1412 1413 1413
1406 1405 1404 1403 1403 1402 1402 1401 1401 1401 1401 1400 1400 1400 1399 1398 1398 1397 1396 1396 1395 1394 1393 1392 1392 1391 1391 1390 1390 1389 1389 1388 1389 1390 1390 1391 1392 1393 1393 1393 1394 1395 1396 1396 1397 1398 1399 1399 1400 1400 1401 1401 1401 1401 1402 1403 1404 1404 1405 1406 1406 1407 1408 1409 1410 1411 1411 1412 1412
1404 1404 1403 1402 1402 1401 1401 1401 1400 1400 1400 1400 1399 1399 1398 1398 1397 1396 1396 1395 1394 1393 1392 1392 1391 1391 1390 1390 1389 1389 1388 1388 1388 1389 1390 1390 1391 1392 1392 1392 1393 1394 1395 1396 1397 1397 1398 1399 1400 1400 1400 1401 1401 1401 1402 1403 1403 1404 1405 1405 1406 1406 1407 1408 1409 1410 1410 1411 1411
1403 1402 1402 1401 1401 1400 1400 1399 1399 1399 1399 1399 1398 1398 1398 1397 1396 1396 1395 1394 1394 1393 1392 1391 1391 1390 1390 1390 1389 1388 1387 1387 1388 1388 1389 1390 1391 1391 1392 1392 1393 1394 1394 1395 1396 1397 1398 1399 1399 1400 1401 1401 1401 1401 1402 1402 1403 1404 1404 1405 1405 1406 1406 1407 1408 1409 1409 1410 1411
1402 1401 1401 1400 1400 1399 1399 1398 1398 1398 1398 1398 1398 1397 1397 1396 1396 1395 1395 1394 1393 1392 1391 1391 1390 1390 1390 1389 1388 1388 1387 1387 1387 1388 1389 1390 1391 1391 1391 1391 1392 1393 1394 1395 1396 1397 1398 1399 1399 1400 1401 1401 1401 1401 1402 1403 1403 1404 1404 1405 1405 1406 1406 1406 1407 1408 1408 1409 1410
1401 1400 1399 1399 1398 1398 1397 1397 1397 1397 1397 1397 1397 1396 1396 1396 1395 1394 1394 1393 1392 1392 1391 1391 1390 1390 1389 1389 1388 1387 1387 1387 1387 1388 1389 1390 1391 1391 1391 1391 1392 1393 1393 1394 1396 1397 1398 1399 1399 1400 1401 1401 1401 1401 1402 1403 1403 1403 1404 1404 1405 1405 1406 1406 1406 1407 1407 1408 1409
1399 1399 1398 1397 1397 1397 1396 1396 1396 1396 1396 1396 1396 1396 1396 1395 1394 1394 1393 1393 1392 1391 1391 1390 1390 1389 1389 1389 1388 1387 1387 1387 1387 1388 1389 1390 1390 1391 1391 1391 1391 1392 1393 1394 1395 1396 1397 1398 1399 1400 1401 1401 1401 1401 1402 1402 1403 1403 1404 1404 1405 1405 1405 1406 1406 1406 1407 1407 1408
1398 1397 1397 1396 1396 1396 1395 1395 1395 1395 1395 1395 1395 1395 1395 1394 1394 1393 1393 1392 1392 1391 1391 1390 1390 1389 1389 1389 1388 1387 1387 1387 1387 1388 1389 1390 1390 1391 1391 1391 1391 1392 1393 1394 1395 1396 1397 1398 1399 1400 1400 1401 1401 1401 1401 1402 1402 1403 1404 1404 1405 1405 1405 1406 1406 1406 1407 1407 1408
1397 1396 1396 1395 1395 1394 1394 1394 1394 1394 1394 1394 1394 1394 1394 1394 1393 1392 1392 1392 1391 1391 1391 1390 1390 1389 1389 1389 1388 1387 1387 1387 1388 1388 1389 1390 1390 1390 1391 1391 1391 1392 1393 1394 1395 1396 1397 1397 1398 1399 1400 1400 1400 1401 1401 1401 1402 1403 1403 1404 1404 1405 1405 1406 1406 1406 1407 1407 1408
1396 1395 1394 1394 1393 1393 1393 1392 1392 1392 1393 1393 1393 1393 1393 1393 1392 1392 1391 1391 1391 1391 1390 1390 1389 1389 1389 1389 1388 1388 1387 1388 1388 1389 1389 1390 1390 1391 1391 1391 1391 1392 1392 1393 1395 1396 1396 1397 1398 1398 1399 1399 1400 1400 1401 1401 1402 1402 1403 1403 1404 1404 1405 1405 1406 1406 1407 1407 1407
1394 1394 1393 1393 1392 1392 1391 1391 1391 1391 1391 1392 1392 1392 1392 1392 1392 1391 1391 1391 1391 1390 1390 1390 1389 1389 1389 1389 1389 1388 1388 1388 1389 1389 1389 1390 1390 1391 1391 1391 1391 1392 1393 1393 1394 1395 1396 1397 1397 1398 1399 1399 1399 1400 1400 1401 1402 1402 1402 1403 1403 1404 1404 1405 1406 1406 1407 1407 1407
1393 1392 1392 1391 1391 1391 1390 1390 1390 1390 1391 1391 1391 1391 1391 1391 1391 1391 1391 1390 1390 1390 1390 1390 1389 1389 1389 1389 1389 1389 1389 1389 1389 1390 1390 1390 1391 1391 1391 1391 1391 1392 1393 1393 1394 1395 1396 1396 1397 1398 1398 1399 1399 1400 1400 1401 1401 1402 1402 1402 1403 1403 1404 1405 1405 1406 1406 1407 1407
1392 1391 1391 1390 1390 1390 1389 1389 1389 1389 1389 1390 1390 1391 1391 1391 1390 1390 1390 1390 1390 1390 1390 1389 1389 1389 1389 1389 1389 1390 1390 1390 1390 1390 1391 1391 1391 1391 1391 1391 1391 1392 1392 1393 1394 1395 1395 1396 1397 1397 1398 1398 1399 1399 1400 1401 1401 1401 1402 1402 1403 1403 1404 1404 1405 1406 1406 1407 1407
1391 1390 1390 1389 1389 1388 1388 1388 1388 1388 1388 1389 1389 1389 1390 1390 1390 1389 1389 1389 1389 1390 1389 1389 1389 1389 1389 1389 1389 1390 1390 1391 1391 1391 1391 1391 1391 1391 1391 1391 1391 1391 1392 1392 1393 1394 1395 1396 1396 1397 1397 1398 1398 1399 1400 1400 1401 1401 1401 1402 1402 1403 1403 1404 1404 1405 1406 1406 1407
1389 1389 1389 1388 1388 1387 1387 1387 1387 1387 1387 1388 1388 1388 1389 1389 1389 1389 1389 1389 1389 1389 1389 1389 1389 1389 1389 1389 1389 1390 1390 1390 1391 1391 1391 1391 1391 1391 1391 1391 1391 1391 1391 1392 1392 1394 1395 1396 1396 1396 1397 1397 1398 1398 1399 1400 1400 1401 1401 1401 1402 1402 1403 1403 1404 1405 1405 1406 1406
1388 1388 1387 1387 1387 1386 1386 1386 1386 1386 1386 1387 1387 1387 1388 1388 1388 1388 1388 1388 1388 1389 1389 1389 1389 1389 1389 1389 1389 1389 1389 1390 1390 1391 1391 1391 1391 1391 1391 1391 1391 1391 1391 1391 1392 1393 1394 1395 1395 1396 1396 1397 1397 1398 1398 1399 1400 1400 1401 1401 1401 1402 1403 1403 1404 1404 1405 1405 1406
Wind_Speed
27 27 26 25 24 22 21 19 18 16 16 15 15 15 15 15 16 16 17 17 18 18 18 17 16 17 18 21 23 24 24 23 23 22 22 22 20 18 14 12 11 12 13 15 16 16 16 14 13 13 15 17 19 18 16 12 9 11 14 17 18 18 16 14 14 18 24 28 31
26 26 25 24 23 22 20 19 17 16 15 15 14 15 15 16 17 17 18 19 20 20 20 19 18 18 18 19 20 22 22 23 23 23 23 22 22 20 17 14 12 12 12 14 15 16 16 16 15 15 16 17 19 20 19 18 14 11 11 15 19 20 18 14 12 12 16 20 25
26 25 25 23 22 21 20 18 16 15 14 14 14 15 16 17 18 19 20 20 21 21 22 22 21 20 20 20 20 20 20 21 23 23 23 23 22 21 20 17 14 12 12 13 14 14 14 14 14 14 15 16 18 20 20 20 18 15 12 12 15 17 18 16 14 12 11 12 15
25 25 24 23 21 20 19 18 16 15 14 14 15 16 17 19 20 20 21 21 22 22 23 23 22 22 22 22 21 20 19 20 21 22 23 22 22 22 21 19 16 13 12 13 13 13 12 11 11 12 13 14 15 17 18 18 18 17 15 13 12 13 15 15 16 15 13 10 9
24 24 23 22 21 19 18 17 16 15 15 15 16 17 18 19 20 21 21 22 22 22 23 23 23 23 23 23 23 22 20 19 19 20 21 21 21 21 20 20 17 15 13 13 13 13 13 12 11 10 10 11 12 14 15 15 15 16 16 15 13 11 12 12 14 16 17 15 11
24 23 23 21 20 19 17 17 16 15 15 16 17 18 19 20 20 21 22 22 22 22 22 23 23 23 23 23 23 23 22 20 19 19 19 20 19 19 19 20 18 16 14 13 13 14 14 13 12 10 8 9 10 11 13 13 12 13 13 14 13 12 11 10 11 14 17 19 18
23 23 22 21 19 18 17 16 16 15 16 16 17 18 19 20 20 21 22 22 23 23 23 23 23 23 23 23 23 23 22 21 19 18 18 18 18 17 18 19 18 17 15 13 13 14 15 14 12 10 8 8 9 11 13 13 12 11 11 11 12 12 11 9 9 11 13 17 20
23 23 22 20 19 17 16 15 15 15 16 16 17 18 19 20 21 22 22 23 24 24 24 24 23 23 23 23 23 23 23 22 20 19 18 18 17 17 17 18 18 18 16 14 14 14 15 15 13 10 8 8 10 11 13 13 13 11 10 10 10 10 10 9 7 8 9 12 16
22 22 21 20 19 17 16 15 15 15 16 17 17 18 19 20 21 22 23 24 24 25 25 24 24 23 23 23 23 23 23 23 21 20 18 18 18 17 16 16 18 18 17 16 15 16 16 16 13 11 9 9 11 12 13 13 12 11 10 9 9 9 8 7 6 5 6 8 11
22 21 21 20 18 17 16 15 15 15 16 16 17 19 20 21 21 22 23 24 25 26 26 25 24 23 22 22 22 22 22 23 22 21 19 18 18 18 17 16 16 17 17 17 16 16 17 16 13 11 9 10 13 14 13 12 11 10 10 10 10 9 8 7 5 4 3 4 7
21 21 20 19 18 17 16 15 15 15 15 16 17 18 20 21 21 22 23 24 25 26 26 26 25 23 22 21 20 20 21 21 21 20 19 19 19 19 17 16 15 15 15 15 15 16 16 16 13 10 10 12 15 15 14 12 10 9 9 10 11 10 9 7 6 4 3 3 4
21 21 20 19 18 17 16 15 15 14 14 15 16 18 19 21 22 22 23 24 25 25 26 26 25 24 22 20 18 18 17 17 17 17 18 19 20 20 18 16 15 14 13 13 14 15 15 15 13 11 12 14 16 15 13 10 8 8 8 9 11 11 10 8 7 5 4 4 4
21 20 19 19 18 17 16 15 15 14 14 15 16 18 20 21 21 22 23 24 24 25 25 25 25 24 22 19 17 15 13 12 13 15 16 18 20 20 19 16 14 13 12 12 13 14 14 14 13 13 14 15 16 13 11 8 7 7 7 8 9 9 9 8 7 7 6 6 5
20 20 19 18 18 17 17 16 15 15 15 16 17 18 20 20 21 21 22 23 24 24 24 24 23 23 20 17 14 13 11 10 10 12 15 17 19 20 18 16 14 13 12 12 12 13 13 13 13 13 14 15 15 12 9 8 7 6 6 7 8 8 7 6 6 6 7 7 7
20 20 19 18 18 17 17 16 16 15 16 16 17 18 19 19 20 21 22 23 23 23 22 22 22 21 18 14 11 10 9 9 9 11 14 16 18 19 18 16 14 13 12 12 13 13 13 13 13 14 14 15 13 11 9 8 7 6 6 7 7 7 6 5 4 4 5 6 8
20 19 19 18 18 17 17 16 16 16 16 17 17 18 18 18 19 20 21 22 22 21 20 20 20 20 16 12 10 10 9 9 9 10 12 15 17 18 18 16 14 12 12 12 13 13 14 14 14 15 15 14 12 11 10 8 7 7 6 6 7 7 7 6 4 3 4 5 6
20 20 19 18 18 17 16 16 16 16 16 17 17 17 17 18 19 19 20 20 20 20 20 19 20 19 16 12 12 11 10 9 9 10 12 13 15 17 17 17 14 13 12 12 13 13 14 15 16 16 16 15 13 11 10 9 8 7 6 6 6 7 8 8 7 6 5 5 6
20 20 19 18 18 17 16 16 15 16 16 16 16 16 17 17 18 18 18 18 18 19 20 20 19 19 17 14 13 13 12 11 10 10 11 12 14 16 17 17 15 13 13 13 14 14 14 14 15 16 17 16 14 13 11 10 9 7 6 5 5 5 6 7 7 7 7 6 6
21 20 19 18 18 17 16 15 15 15 15 16 16 16 16 17 17 18 18 18 18 19 20 20 20 19 18 16 14 14 14 12 11 11 12 12 14 15 17 17 15 14 14 14 14 14 14 14 14 16 16 16 15 14 13 11 10 8 7 5 4 4 5 5 6 7 7 6 6
21 20 19 18 17 17 16 15 15 15 15 15 15 15 15 16 17 17 17 18 18 19 20 20 20 19 18 17 14 14 15 14 12 11 12 13 14 15 16 16 15 15 14 14 13 13 13 13 14 15 15 15 14 14 14 12 10 8 7 6 5 4 4 5 5 5 5 6 6
21 20 19 18 17 16 15 15 14 14 14 14 14 14 15 16 16 17 18 18 19 19 20 19 18 18 17 17 16 13 14 15 13 12 12 13 14 15 16 16 16 15 14 13 12 11 11 12 13 14 14 13 13 13 13 12 11 9 7 6 6 5 5 4 4 4 4 5 4
21 20 19 18 16 15 15 14 14 14 14 14 14 14 14 15 17 18 19 19 19 19 18 17 17 17 16 16 16 15 13 14 13 12 12 13 14 15 15 16 16 14 13 12 10 10 10 11 12 12 12 12 12 12 12 11 10 8 7 7 6 6 5 5 4 4 4 4 4
20 20 19 17 16 15 14 14 14 14 14 13 13 13 14 15 16 17 19 20 19 17 15 15 15 16 16 15 15 15 14 13 13 13 13 14 14 14 15 16 15 13 12 11 9 9 9 9 11 11 11 11 11 11 11 10 9 8 8 8 7 7 6 5 4 4 4 5 5
20 20 18 17 15 14 14 14 14 14 13 13 12 13 14 15 16 17 18 18 16 14 13 13 14 15 15 15 15 15 14 13 13 14 15 14 14 14 15 16 15 13 12 10 9 8 8 9 9 10 10 10 11 11 10 10 9 9 9 9 8 8 7 6 5 5 5 6 6
20 19 18 17 15 14 14 14 14 14 13 12 12 12 13 14 15 16 16 16 14 13 12 13 14 14 14 14 14 14 14 13 13 16 16 15 12 12 13 14 14 13 12 10 9 9 8 8 9 9 10 10 10 10 9 9 10 10 10 10 10 9 8 7 7 6 7 7 8
20 19 18 16 15 14 14 14 14 14 13 12 12 12 12 13 14 14 15 14 13 13 14 14 15 14 14 13 13 13 13 12 13 16 17 15 11 10 10 12 13 14 13 11 10 9 9 8 8 9 9 9 9 9 9 9 10 11 11 12 12 11 10 10 9 9 9 9 10
20 19 18 17 15 14 14 14 14 14 13 12 12 11 12 13 13 14 14 14 14 14 15 16 16 14 13 12 12 12 12 11 13 17 18 16 11 8 7 9 12 14 14 13 11 11 10 9 9 9 9 10 10 10 10 10 10 11 12 12 12 12 12 12 11 11 11 11 11
20 19 18 17 15 14 14 14 14 14 13 13 12 12 12 12 13 13 13 13 14 15 15 16 15 14 12 10 11 11 11 11 13 18 19 17 12 8 5 7 11 13 14 13 13 12 12 11 11 11 11 11 11 10 10 10 10 10 11 12 12 12 13 13 13 12 12 12 12
20 19 18 17 15 15 14 14 14 13 13 13 12 12 11 12 12 12 13 13 14 14 14 14 13 12 10 9 10 10 9 10 13 17 19 16 12 8 5 7 9 10 12 14 14 14 13 12 12 11 11 11 11 11 10 9 9 9 9 10 11 12 12 13 13 13 13 13 13
19 19 18 17 15 15 14 14 14 14 13 13 12 11 11 11 11 12 13 13 14 14 13 12 11 10 9 9 9 8 7 8 12 15 16 14 11 8 5 7 8 8 9 12 14 15 13 12 11 10 10 11 11 11 10 9 9 8 8 9 9 10 11 12 12 12 13 13 13
19 19 18 17 16 15 14 14 14 14 13 13 12 11 11 11 11 12 12 13 13 13 12 11 9 8 8 9 8 5 5 7 11 13 13 11 9 7 6 8 7 6 7 9 13 15 15 13 11 10 10 10 10 9 9 9 9 8 8 8 8 9 9 10 11 12 12 12 12
19 19 18 17 16 15 14 14 14 14 13 13 12 12 11 11 11 11 12 12 12 12 10 9 7 7 8 8 7 4 2 6 9 10 10 9 8 7 8 8 7 6 5 6 9 13 15 15 13 12 10 9 8 8 8 8 8 9 9 9 9 9 9 10 10 11 11 12 12
19 19 18 17 16 15 14 14 14 14 14 13 13 12 12 11 10 10 11 12 11 11 9 7 6 6 6 6 6 4 1 4 6 8 8 8 7 7 8 8 7 6 5 5 6 8 11 13 13 12 10 8 6 6 6 7 8 8 9 10 10 9 9 9 9 10 11 11 11
19 18 18 17 16 15 14 14 14 14 14 14 14 13 12 11 10 10 10 11 11 10 8 7 5 5 5 5 5 5 3 2 4 6 6 6 6 7 8 8 7 7 6 6 6 6 7 7 8 8 8 6 5 5 5 5 7 8 10 10 10 10 9 9 9 10 11 11 11
18 18 18 17 15 14 14 14 14 14 14 15 15 14 12 11 10 9 9 10 10 9 8 6 4 4 4 3 4 6 5 3 3 4 4 5 6 7 8 8 7 7 7 7 7 7 7 6 5 5 5 5 4 4 4 4 7 9 10 10 10 10 9 9 9 10 11 11 12
18 18 17 16 15 14 13 13 13 13 14 15 15 14 13 11 10 9 8 9 9 8 7 5 3 2 1 2 4 5 5 4 2 3 3 4 6 7 8 8 8 9 9 9 8 7 8 8 8 7 6 5 4 4 4 5 7 8 9 10 9 9 9 9 9 9 10 10 11
18 18 17 16 14 12 12 12 12 12 13 14 15 14 13 11 9 8 8 7 7 7 6 5 2 1 1 3 5 5 5 3 2 3 4 5 7 8 8 7 8 10 10 9 7 6 7 9 10 10 9 7 6 6 6 7 7 8 8 8 8 8 9 9 9 9 9 9 9
18 17 17 15 13 11 10 10 11 11 12 13 14 14 13 11 9 8 7 6 6 6 6 5 2 2 2 3 4 5 4 2 2 3 5 6 7 7 6 5 6 7 8 6 5 5 7 10 12 11 10 8 8 8 9 8 8 8 8 8 8 8 9 9 9 8 8 8 8
17 17 16 15 13 11 10 9 9 10 11 12 13 13 12 11 10 8 7 5 5 5 5 4 2 2 3 3 3 3 2 2 3 4 6 6 6 6 4 3 3 3 3 3 3 4 6 9 11 10 8 8 8 10 10 10 9 8 8 8 8 8 9 9 8 8 7 7 6
17 16 15 14 13 11 10 9 9 9 10 11 12 12 12 11 10 8 7 5 4 4 5 4 3 3 3 3 2 1 1 2 3 4 4 5 4 4 3 2 2 2 2 1 2 4 6 8 8 8 7 7 8 9 10 10 9 9 8 8 9 9 9 9 8 8 7 6 6
16 16 15 14 13 11 10 9 9 9 10 11 11 12 12 11 10 8 6 5 4 4 4 4 3 3 3 4 3 2 2 2 2 3 4 4 3 3 2 2 2 2 2 2 3 5 7 7 6 6 6 6 7 7 8 9 8 8 8 9 10 10 10 9 9 8 7 6 6
Wind_Direction
317 316 315 315 315 315 315 315 313 310 306 303 300 299 298 298 298 297 296 296 295 294 292 288 282 273 265 260 258 258 259 260 261 261 260 259 260 262 264 265 265 267 269 269 268 266 266 267 267 262 256 254 256 263 271 274 253 226 217 218 224 228 227 222 218 221 225 229 232
316 315 315 314 314 314 314 314 313 311 309 306 304 303 303 303 302 301 300 299 297 295 292 289 286 280 273 266 262 259 257 257 257 259 259 258 258 259 261 262 262 264 267 269 268 266 265 266 269 269 264 257 253 254 260 267 271 263 241 229 229 232 235 235 225 214 214 219 225
314 314 314 313 313 312 312 311 311 310 309 308 308 307 307 307 306 305 303 301 299 296 293 290 287 282 278 273 269 264 259 255 254 255 256 257 256 257 258 260 259 260 262 265 266 265 264 263 266 269 269 265 258 254 254 258 263 268 263 248 238 238 242 246 244 233 218 212 214
313 313 313 313 312 310 309 309 308 309 308 309 309 309 310 309 309 308 306 304 301 298 295 292 288 284 280 277 274 270 265 258 254 253 253 253 254 254 256 257 257 256 256 260 265 268 267 265 264 266 270 272 268 262 257 256 257 260 262 260 250 244 244 248 248 244 237 227 212
313 313 313 312 310 309 307 306 306 306 307 309 310 311 311 312 312 311 310 308 305 302 298 294 290 286 282 279 276 274 270 265 258 253 251 251 251 252 252 254 254 253 252 255 263 270 273 271 267 264 268 274 277 275 270 264 259 257 258 261 261 253 245 243 245 245 244 241 233
312 312 312 311 309 307 305 303 303 304 306 308 310 312 313 314 315 315 314 312 309 306 302 298 294 289 284 280 277 275 272 269 263 256 251 249 248 248 249 250 251 250 248 249 257 266 271 271 267 262 264 272 280 283 283 279 270 262 260 262 266 264 254 242 238 241 245 246 245
311 311 311 310 308 305 302 300 300 302 305 307 311 313 315 317 317 317 316 314 312 310 306 302 297 292 287 281 277 274 271 269 264 258 252 247 244 244 245 246 248 248 246 244 247 256 263 266 262 258 261 271 279 283 285 285 281 275 269 267 269 271 266 254 240 237 240 246 248
311 311 311 309 307 304 300 297 297 299 303 308 312 315 317 318 318 317 316 315 314 312 310 306 301 295 288 282 277 272 269 267 264 259 252 245 241 240 242 244 245 247 247 244 242 246 254 261 260 258 260 269 277 279 280 280 282 282 279 275 273 274 274 269 256 241 237 241 246
311 311 310 309 306 302 298 295 295 298 302 307 312 315 317 317 317 316 316 315 314 313 312 309 304 297 290 283 277 272 268 265 262 258 251 243 238 236 239 242 244 247 248 247 242 242 247 256 262 266 269 272 273 272 271 271 276 281 285 284 280 278 279 281 277 259 242 239 241
310 310 309 308 305 301 296 294 294 297 302 307 311 314 315 315 315 315 314 314 314 313 312 311 307 301 294 285 278 271 266 263 261 257 251 243 236 234 235 240 243 246 248 250 246 243 245 252 262 271 278 278 271 266 262 262 267 275 283 287 285 282 281 284 288 284 266 249 240
311 310 309 306 303 298 294 292 292 296 301 306 309 311 311 311 311 312 311 312 312 312 312 311 310 306 298 288 278 270 265 262 258 255 249 241 234 231 232 236 240 243 245 249 248 245 245 250 258 267 273 272 267 261 256 255 259 266 276 283 285 284 283 284 290 296 292 268 249
311 310 308 305 300 296 291 289 289 293 297 301 303 304 305 306 307 308 308 309 310 310 310 311 311 309 301 289 275 266 262 260 256 250 244 237 232 229 228 231 234 237 241 245 246 245 244 246 251 258 263 264 261 256 252 251 254 259 267 276 281 284 285 287 291 296 297 285 264
311 310 307 303 298 293 289 286 286 288 292 294 296 296 298 301 303 305 306 307 308 309 310 310 311 310 304 289 269 256 251 253 250 244 238 232 228 226 225 226 228 231 234 238 241 241 240 241 245 251 256 259 259 254 247 245 248 252 258 265 273 280 284 288 290 292 292 288 276
312 310 307 302 297 291 287 284 283 285 287 289 290 292 295 299 303 305 306 307 309 309 310 311 312 311 304 287 263 246 240 242 243 240 234 228 225 222 220 220 222 225 228 231 233 233 232 234 238 245 252 257 256 251 243 240 240 243 248 256 264 272 278 282 284 285 284 283 280
312 310 306 301 296 291 286 282 282 283 285 286 289 293 297 302 305 307 309 310 311 311 311 311 312 311 304 285 259 246 242 241 240 239 234 227 222 218 215 215 218 222 225 226 226 226 226 227 233 240 248 252 252 247 241 237 236 238 242 251 259 266 269 268 268 270 273 276 277
313 310 306 301 296 291 286 283 282 283 285 287 292 298 303 306 309 311 313 313 314 314 313 312 312 312 305 281 256 251 255 251 244 239 235 229 221 215 212 212 217 222 225 225 224 223 223 225 230 237 243 246 246 243 240 238 235 235 238 247 256 263 267 267 263 260 262 265 269
313 310 307 302 298 292 287 284 282 284 287 292 298 304 308 311 313 315 315 316 315 315 314 313 314 313 306 282 256 250 257 258 249 240 234 229 221 214 209 210 216 222 224 222 220 220 221 223 229 235 240 241 239 238 239 239 237 235 236 243 253 262 269 272 274 275 275 273 269
313 311 308 304 300 295 290 285 284 286 291 297 303 307 310 313 315 316 317 316 315 314 313 313 315 316 311 292 263 248 249 256 252 241 232 227 221 213 208 208 214 221 222 217 213 212 214 217 223 230 235 236 235 234 236 237 236 234 234 239 250 262 271 278 281 282 283 283 279
314 312 309 305 302 297 292 289 287 290 295 300 305 308 311 314 316 316 316 315 314 312 311 311 314 317 317 307 279 254 244 247 249 240 229 223 218 212 206 207 215 220 219 211 205 202 203 208 215 223 228 230 230 231 232 233 232 229 230 236 246 260 273 282 285 285 283 281 279
314 312 310 307 303 299 295 291 290 293 297 301 305 308 311 313 315 315 314 313 313 311 308 307 310 315 319 317 298 267 245 241 244 239 228 218 214 209 207 209 217 220 215 204 197 194 195 199 206 214 219 221 223 225 228 229 227 223 224 230 242 255 268 279 284 284 280 275 273
314 313 310 307 304 300 295 292 291 294 297 301 304 307 310 313 314 313 313 312 311 308 306 306 308 312 316 318 311 287 258 243 241 238 227 215 211 209 210 213 219 217 207 196 191 189 191 193 198 204 208 211 214 217 221 223 223 222 221 228 238 249 259 268 275 274 268 263 263
314 313 311 308 304 299 295 292 291 294 297 300 303 307 310 312 313 314 313 310 308 306 306 307 309 310 310 311 311 299 275 248 239 233 224 215 213 213 215 216 218 210 197 187 186 188 190 191 193 195 198 201 203 207 212 216 218 219 221 226 234 242 250 256 261 258 253 248 246
314 312 310 307 303 298 294 291 290 292 295 298 302 306 310 313 314 315 314 311 309 307 307 308 308 307 305 303 303 299 284 256 236 225 219 216 218 219 219 218 213 202 189 182 182 187 192 192 191 190 191 193 196 200 206 210 214 217 220 223 228 233 238 242 246 245 240 234 227
314 312 310 306 302 296 292 289 289 291 293 296 300 306 311 314 316 316 316 315 313 312 311 310 308 305 301 298 296 294 285 263 234 217 212 216 221 224 222 217 206 193 183 181 181 186 191 192 190 188 188 189 193 198 203 206 210 213 215 216 218 220 222 223 225 226 223 218 212
314 312 309 305 300 294 289 286 286 287 289 292 297 304 310 314 315 316 316 317 317 316 314 310 306 302 299 296 294 292 286 267 232 213 209 215 223 228 224 213 197 186 182 182 181 184 187 189 187 187 186 187 189 193 198 202 205 208 209 209 208 207 206 205 207 208 207 204 202
314 311 307 303 297 291 285 283 282 283 285 287 292 300 306 310 312 313 316 319 319 317 312 307 302 299 297 296 294 292 287 268 229 209 208 216 227 234 224 205 189 183 183 183 181 181 181 181 181 181 181 181 182 185 190 195 200 203 204 203 201 198 196 197 198 198 198 197 197
313 310 306 301 294 287 282 279 279 280 281 283 287 293 299 303 306 309 314 317 316 313 310 305 301 298 297 296 294 291 285 266 226 210 209 218 231 242 228 198 184 183 184 183 179 176 174 172 170 169 168 167 169 173 179 185 191 195 197 197 195 193 192 193 195 196 196 195 196
312 308 304 299 292 285 279 276 275 277 278 280 282 287 293 298 303 308 312 314 313 311 309 307 305 303 300 296 292 289 281 261 226 212 212 221 235 247 230 188 180 181 182 179 175 171 167 163 159 156 154 153 153 155 161 169 177 184 188 191 191 190 191 192 194 195 196 195 195
310 307 302 297 290 283 277 273 272 273 275 276 279 283 290 298 304 309 310 311 311 311 311 310 310 308 302 292 289 286 278 257 227 217 217 226 240 248 221 176 171 174 176 174 170 167 163 158 154 151 148 146 142 140 142 148 157 168 176 182 186 188 190 191 193 194 195 195 196
308 305 301 296 289 282 275 271 269 270 271 273 276 280 288 297 305 310 312 312 313 314 313 312 310 305 296 288 290 287 272 250 230 223 224 232 244 245 210 171 162 162 167 168 167 165 163 160 157 156 154 151 143 138 138 142 148 155 161 169 175 181 185 188 189 191 192 194 196
306 304 300 295 288 281 273 269 266 266 267 269 272 276 285 294 303 310 313 314 315 316 316 313 307 296 288 289 300 295 259 238 230 228 231 237 245 235 202 173 161 155 158 164 167 168 168 168 168 170 169 164 154 149 150 154 154 154 155 158 164 171 177 181 184 186 188 191 193
305 302 298 294 288 280 273 267 264 263 263 264 267 272 280 290 300 308 313 315 316 317 316 312 303 287 282 292 315 320 241 222 225 230 235 241 240 220 192 175 167 163 164 164 170 172 174 174 175 177 179 175 163 158 161 163 161 160 158 158 160 163 169 174 178 180 182 184 185
303 301 297 293 287 280 272 266 262 260 259 259 262 267 275 285 295 304 310 314 315 315 315 310 297 278 277 297 334 3 80 198 214 225 234 237 225 199 179 171 172 178 185 185 184 183 182 180 178 178 179 175 163 156 159 164 166 166 164 161 159 158 160 164 167 170 172 173 174
301 299 296 292 286 279 272 266 261 258 255 254 257 262 270 279 288 298 306 311 314 314 312 310 299 281 281 303 349 18 47 151 197 214 222 218 197 176 166 167 176 190 203 209 210 209 204 194 184 180 178 172 159 151 153 164 172 172 169 164 160 158 157 158 158 159 159 160 160
299 297 295 291 285 278 271 266 262 257 252 250 251 257 265 274 283 293 302 309 313 312 309 307 298 282 281 310 3 26 43 85 162 190 198 187 173 166 165 170 182 198 213 220 220 219 222 223 216 204 192 179 164 158 164 174 176 175 171 167 164 162 161 161 160 157 154 152 152
296 295 294 290 284 276 270 267 263 257 250 246 247 252 260 270 278 287 296 307 312 310 303 298 291 279 302 2 29 37 45 62 111 155 172 174 173 174 174 175 183 196 210 218 217 213 213 220 228 231 224 204 187 184 192 193 184 177 172 169 167 166 166 168 169 166 161 157 155
294 294 292 288 282 274 269 267 265 258 250 244 244 248 256 266 273 281 290 304 310 305 295 284 265 181 79 47 45 47 52 64 101 145 168 180 187 190 189 184 182 188 195 202 204 203 204 211 220 226 225 213 196 192 197 199 191 181 173 169 167 167 168 171 174 176 175 172 168
292 292 290 286 279 272 267 266 263 257 249 243 242 246 253 262 269 276 284 297 303 298 288 274 234 149 106 74 57 56 63 87 141 167 177 185 193 198 200 193 183 182 183 182 184 193 204 210 215 218 216 204 190 187 190 193 190 183 175 171 171 172 172 171 174 179 183 184 185
290 291 289 284 276 269 264 262 260 255 248 243 242 245 251 259 265 270 277 289 297 293 283 266 219 155 128 108 76 65 76 132 169 177 182 186 195 203 208 204 192 187 184 175 176 195 208 211 209 207 203 195 187 184 185 186 184 181 179 180 185 185 181 175 175 177 182 185 187
288 288 286 280 273 266 261 258 256 252 246 242 242 245 249 255 260 264 271 281 287 286 277 258 220 171 151 144 126 107 122 161 178 186 189 195 205 216 225 226 221 226 235 221 204 209 212 208 199 192 190 191 189 185 181 180 179 179 184 191 198 199 193 184 181 183 186 186 185
285 285 283 277 269 263 258 255 252 248 244 241 240 242 244 249 253 258 261 265 267 267 261 249 223 189 173 170 174 184 195 198 195 197 203 211 221 234 242 240 236 240 255 257 235 225 219 209 194 186 190 196 194 186 178 174 174 180 189 199 206 208 205 197 192 194 199 203 203